Simultaneous Nadir Overpasses (SNOs) Predictions

Prediction of SNOs between FY3D and NOAA-19 Satellite Orbit:

Table of predicted SNOs for the next 14.0 days since TLE Epoch: 9/26/2020
Index Date (FY3D) Time (FY3D) Lat,Lon (FY3D) SZA (FY3D ) Date (NOAA-19) Time (NOAA-19) Lat,Lon (NOAA-19) SZA (NOAA-19 ) Distance(km) Time Diff (sec)
1 10/02/2020 01:08:32 -79.12, -47.00 96.05 10/02/2020 01:07:16 -79.12, -46.91 96.02 1.94 76
2 10/02/2020 01:59:17 79.11, 120.36 83.96 10/02/2020 01:58:19 79.13, 120.40 84.00 2.59 58
3 10/02/2020 02:50:01 -79.12, -72.36 96.02 10/02/2020 02:49:16 -79.14, -72.28 95.99 3.16 45
4 10/02/2020 03:40:47 79.14, 94.74 84.04 10/02/2020 03:40:20 79.12, 94.77 84.02 3.13 27
5 10/02/2020 04:31:31 -79.15, -97.98 95.95 10/02/2020 04:31:17 -79.12, -97.90 95.97 3.20 14
6 10/02/2020 05:22:16 79.14, 69.38 84.06 10/02/2020 05:22:20 79.13, 69.40 84.05 1.26 4
7 10/02/2020 06:13:00 -79.15,-123.34 95.92 10/02/2020 06:13:17 -79.14,-123.27 95.94 1.70 17
8 10/02/2020 07:03:45 79.14, 44.02 84.09 10/02/2020 07:04:20 79.15, 44.04 84.08 0.82 35
9 10/02/2020 07:54:29 -79.15,-148.70 95.90 10/02/2020 07:55:17 -79.16,-148.63 95.91 1.80 48
10 10/02/2020 08:45:14 79.14, 18.66 84.11 10/02/2020 08:46:20 79.16, 18.67 84.11 2.64 66
